Du Bois, PA

2:50 PM EST on December 05, 2019 (GMT -0500)
Du Bois-Jefferson County

Weather History for KDUJ - October, 2019

Change the Weather History Date:

Wednesday, October 30, 2019

  Actual Average Record
Temperature  
Mean Temperature 54 °F 45 °F  
Max Temperature 60 °F 54 °F 73 °F (1971)
Min Temperature 49 °F 36 °F 23 °F (1975)
Degree Days  
Heating Degree Days 10 20  
Month to date heating degree days 389 475  
Since 1 July heating degree days 492 721  
Cooling Degree Days 0 0  
Month to date cooling degree days 23 0  
Year to date cooling degree days 430 360  
Growing Degree Days 4 (Base 50)    
Moisture  
Dew Point 51 °F    
Average Humidity 91    
Maximum Humidity 97    
Minimum Humidity 72    
Precipitation  
Precipitation 0.24 in 0.11 in 0.52 in (1970)
Month to date precipitation 3.96 3.04  
Year to date precipitation 40.36 36.28  
Sea Level Pressure  
Sea Level Pressure 30.12 in    
Wind  
Wind Speed 4 mph ()    
Max Wind Speed 15 mph    
Max Gust Speed 21 mph    
Visibility 4.7 miles    
Events Fog , Rain    
T = Trace of Precipitation, MM = Missing Value Source: Averaged Metar Reports

Daily Weather History Graph

Daily Weather History Graph

Search for Another Location

Airport or City:

Astronomy

Oct. 30, 2019 Rise Set
Actual Time 7:44 AM EDT 6:13 PM EDT
Civil Twilight 7:15 AM EDT 6:42 PM EDT
Nautical Twilight 6:43 AM EDT 7:14 PM EDT
Astronomical Twilight 6:11 AM EDT 7:46 PM EDT
Moon 10:26 AM EDT (10/30) 8:18 PM EDT (10/30)
Length of Visible Light 11h 26m
Length of Day
10h 29m
Waxing Crescent, 8% of the Moon is Illuminated
Oct 30
Waxing Crescent
Nov 4
First Quarter
Nov 12
Full
Nov 19
Last Quarter
Nov 26
New

Hourly Weather History & Observations

Time (EDT) Temp. Dew Point Humidity Pressure Visibility Wind Dir Wind Speed Gust Speed Precip Events Conditions
12:53 AM 50.0 °F 48.0 °F 93% 30.22 in 8.0 mi Calm Calm - N/A   Scattered Clouds
1:08 AM 51.1 °F 48.9 °F 92% 30.23 in 6.0 mi East 3.5 mph - N/A   Mostly Cloudy
1:53 AM 52.0 °F 48.9 °F 89% 30.21 in 7.0 mi Calm Calm - N/A   Mostly Cloudy
2:18 AM 51.1 °F 48.9 °F 92% 30.22 in 7.0 mi Calm Calm - N/A   Partly Cloudy
2:53 AM 50.0 °F 48.0 °F 93% 30.20 in 3.0 mi Calm Calm - N/A   Clear
3:08 AM 50.0 °F 48.0 °F 93% 30.21 in 2.5 mi ESE 4.6 mph - N/A   Clear
3:17 AM 50.0 °F 48.0 °F 93% 30.20 in 5.0 mi SE 4.6 mph - N/A   Clear
3:53 AM 50.0 °F 48.9 °F 96% 30.19 in 5.0 mi SE 5.8 mph - N/A   Partly Cloudy
4:53 AM 51.1 °F 48.9 °F 92% 30.19 in 3.0 mi ESE 3.5 mph - N/A   Overcast
5:05 AM 51.1 °F 48.9 °F 92% 30.21 in 3.0 mi ESE 4.6 mph - N/A   Overcast
5:34 AM 51.1 °F 50.0 °F 96% 30.21 in 1.8 mi East 5.8 mph - N/A   Overcast
5:53 AM 51.1 °F 50.0 °F 96% 30.21 in 0.5 mi ESE 3.5 mph - N/A Fog Fog
6:11 AM 51.1 °F 50.0 °F 96% 30.22 in 0.2 mi Calm Calm - N/A Fog Fog
6:53 AM 51.1 °F 50.0 °F 96% 30.22 in 0.2 mi NNE 3.5 mph - N/A Fog Fog
7:23 AM 51.1 °F 50.0 °F 96% 30.21 in 0.5 mi Calm Calm - N/A Fog Fog
7:53 AM 51.1 °F 50.0 °F 96% 30.21 in 1.5 mi ENE 4.6 mph - N/A   Overcast
8:09 AM 51.1 °F 50.0 °F 96% 30.22 in 0.5 mi ESE 8.1 mph - N/A Fog Fog
8:20 AM 52.0 °F 50.0 °F 93% 30.21 in 0.2 mi East 3.5 mph - N/A Fog Fog
8:53 AM 52.0 °F 51.1 °F 97% 30.23 in 0.2 mi Calm Calm - N/A Fog Fog
9:53 AM 53.1 °F 52.0 °F 96% 30.22 in 0.5 mi ESE 4.6 mph - N/A Fog Fog
10:13 AM 53.1 °F 52.0 °F 96% 30.22 in 1.5 mi East 6.9 mph - N/A   Overcast
10:22 AM 53.1 °F 52.0 °F 96% 30.22 in 2.5 mi SE 5.8 mph - N/A   Overcast
10:30 AM 53.1 °F 52.0 °F 96% 30.22 in 3.0 mi ESE 5.8 mph - N/A   Overcast
10:53 AM 53.1 °F 52.0 °F 96% 30.22 in 5.0 mi SSE 6.9 mph - N/A   Overcast
11:16 AM 54.0 °F 52.0 °F 93% 30.20 in 6.0 mi SE 8.1 mph - N/A   Overcast
11:53 AM 55.0 °F 52.0 °F 89% 30.20 in 7.0 mi ESE 10.4 mph 17.3 mph N/A   Overcast
12:53 PM 57.0 °F 52.0 °F 83% 30.18 in 10.0 mi ESE 8.1 mph - N/A   Overcast
1:09 PM 57.0 °F 52.0 °F 83% 30.17 in 10.0 mi SE 8.1 mph - N/A   Overcast
1:53 PM 57.9 °F 52.0 °F 81% 30.14 in 10.0 mi ESE 5.8 mph - N/A   Overcast
2:10 PM 59.0 °F 52.0 °F 78% 30.13 in 10.0 mi SE 10.4 mph - N/A   Overcast
2:53 PM 60.1 °F 51.1 °F 72% 30.11 in 10.0 mi SE 8.1 mph - N/A   Overcast
3:53 PM 59.0 °F 51.1 °F 75% 30.08 in 10.0 mi SE 13.8 mph 20.7 mph N/A   Partly Cloudy
4:17 PM 59.0 °F 51.1 °F 75% 30.08 in 10.0 mi SE 11.5 mph - N/A   Mostly Cloudy
4:53 PM 57.9 °F 51.1 °F 78% 30.08 in 10.0 mi SE 8.1 mph - N/A   Overcast
5:53 PM 57.9 °F 51.1 °F 78% 30.07 in 10.0 mi SSE 6.9 mph - N/A   Overcast
6:53 PM 55.9 °F 52.0 °F 87% 30.06 in 10.0 mi SE 6.9 mph - 0.01 in Rain Light Rain
7:17 PM 55.9 °F 52.0 °F 87% 30.04 in 9.0 mi SE 8.1 mph - 0.00 in Rain Light Rain
7:43 PM 55.0 °F 53.1 °F 93% 30.03 in 6.0 mi SE 6.9 mph - 0.02 in Rain Light Rain
7:53 PM 55.0 °F 53.1 °F 93% 30.03 in 7.0 mi SE 8.1 mph - 0.02 in Rain Light Rain
8:24 PM 55.0 °F 53.1 °F 93% 30.02 in 6.0 mi SE 6.9 mph - 0.01 in Rain Light Rain
8:34 PM 55.0 °F 53.1 °F 93% 30.01 in 5.0 mi SE 5.8 mph - 0.01 in Rain Light Rain
8:53 PM 55.0 °F 53.1 °F 93% 30.01 in 4.0 mi SE 6.9 mph - 0.03 in Rain Light Rain
9:40 PM 55.0 °F 53.1 °F 93% 30.00 in 4.0 mi SE 6.9 mph - 0.04 in Rain Light Rain
9:53 PM 55.0 °F 53.1 °F 93% 30.00 in 3.0 mi SE 6.9 mph - 0.07 in Rain Light Rain
10:15 PM 55.0 °F 53.1 °F 93% 30.00 in 2.5 mi Variable 4.6 mph - 0.01 in Rain Light Rain
10:26 PM 55.0 °F 53.1 °F 93% 29.99 in 4.0 mi SE 4.6 mph - 0.02 in Rain Light Rain
10:37 PM 55.0 °F 53.1 °F 93% 29.99 in 2.0 mi SE 5.8 mph - 0.04 in Rain Light Rain
10:45 PM 55.0 °F 53.1 °F 93% 29.99 in 2.5 mi ESE 4.6 mph - 0.04 in Rain Light Rain
10:53 PM 55.0 °F 53.1 °F 93% 29.97 in 2.0 mi ESE 8.1 mph - 0.05 in Rain Light Rain
11:15 PM 55.0 °F 53.1 °F 93% 29.96 in 3.0 mi ESE 8.1 mph - 0.02 in Rain Light Rain
11:25 PM 55.0 °F 53.1 °F 93% 29.96 in 3.0 mi ESE 8.1 mph - 0.02 in   Overcast
11:44 PM 55.0 °F 53.1 °F 93% 29.95 in 4.0 mi ESE 8.1 mph - 0.03 in   Overcast
11:53 PM 55.0 °F 53.1 °F 93% 29.94 in 3.0 mi ESE 9.2 mph - 0.03 in Rain Light Rain